Location: La Tine
(46.4708°N, 7.0525°E)
Time: 02:03:10
(UTC+00:00)

CZ-2C R/B - Pass Details

Date: 18 September 2020
Orbit: 640 x 704 km, 98.4° (Epoch: 31 October)

Event Time Altitude Azimuth Distance (km) Brightness Sun altitude
Rises 19:59:14 0° 13° (NNE) 2,962 7.3 -24.2°
Reaches altitude 10° 20:01:26 10° 14° (NNE) 2,052 6.4 -24.5°
Enters shadow 20:05:29 73° 17° (NNE) 683 3.7 -25.1°
